[[{"header":{"parameterUnit":"m.s-1","parameterCategory":1,"la1":30.2991,"la2":30.254,"lo1":-89.0895,"lo2":-89.0444,"dy":0.0017,"dx":0.0017,"nx":28,"ny":28,"refTime":"2024-06-17T09:00:00:Z","depth":0,"parameterNumber":2,"parameterNumberName":"U-component_of_WINDS"},"data":[0,0,0,0,0,0,0,0,0,0,0,0,0,0,0,0,0,0,0,0,0,0,0,0,0,0,0,0,0,0,0,0,0,0,0,0,0,0,0,0,0,0,0,0,0,0,0,0,0,0,0,0,0,0,0,0,0,0,-6.7384,-6.7384,0,-6.7371,-6.737,-6.737,-6.7203,-6.7198,-6.7194,-6.719,-6.7178,-6.7182,-6.7186,0,0,0,0,0,0,0,0,0,0,0,0,0,-6.7266,-6.7269,-6.7384,-6.7384,-6.7384,-6.7371,-6.737,-6.737,-6.7203,-6.7198,-6.7193,-6.7188,-6.7177,-6.7182,-6.7186,0,0,0,0,0,0,0,0,0,0,0,0,0,-6.7291,-6.727,-6.7384,-6.7299,-6.7291,-6.7371,-6.737,-6.737,-6.7205,-6.7198,-6.7192,-6.7186,-6.7176,-6.7181,-6.7187,-6.7347,0,0,-6.7203,-6.7206,0,0,0,0,0,0,0,0,-6.729,-6.7296,-6.7311,-6.7305,-6.7296,-6.7282,-6.7324,-6.7363,-6.7206,-6.7237,-6.719,-6.7183,-6.7218,-6.722,-6.7231,-6.7347,-6.7346,-6.7204,-6.7207,-6.7209,-6.7211,0,0,0,0,0,0,0,-6.7288,-6.7295,-6.7379,-6.7312,-6.7303,-6.7261,-6.7258,-6.7331,-6.7264,-6.7234,-6.7222,-6.7223,-6.7213,-6.7226,-6.723,-6.7346,-6.7204,-6.7208,-6.7212,-6.7214,-6.7591,-6.7597,0,0,0,0,0,0,-6.7298,-6.7295,-6.7379,-6.7378,-6.7277,-6.7269,-6.7265,-6.7293,-6.7262,-6.7252,-6.7228,-6.7215,-6.722,-6.7224,-6.7229,-6.7413,-6.7209,-6.7214,-6.7218,-6.7584,-6.7592,-6.76,0,0,0,0,0,0,-6.7296,-6.7307,-6.738,-6.7333,-6.7339,-6.7277,-6.731,-6.7296,-6.7309,-6.7258,-6.7245,-6.7254,-6.7215,-6.7221,-6.7318,-6.741,-6.7217,-6.7222,-6.7576,-6.7587,-6.7596,-6.7784,0,0,0,0,0,0,-6.7294,-6.7308,-6.7368,-6.7336,-6.7342,-6.747,-6.7316,-6.73,-6.7319,-6.7301,-6.7279,-6.7269,-6.7211,-6.7311,-6.7324,-6.7414,-6.7226,-6.7568,-6.7581,-6.7593,-6.7769,-6.7799,-6.7825,0,0,0,0,0,-6.729,-6.7423,-6.7372,-6.7383,-6.7417,-6.7476,-6.7479,-6.7409,-6.7327,-6.7387,-6.7354,-6.727,-6.7399,-6.7323,-6.7335,-6.7429,-6.7562,-6.7577,-6.7592,-6.7757,-6.7793,-6.7824,0,0,0,0,0,0,-6.7468,-6.7417,-6.736,-6.7486,-6.7486,-6.7447,-6.752,-6.745,-6.7474,-6.7457,-6.7369,-6.7366,-6.7476,-6.7462,-6.7379,-6.7582,-6.7465,-6.7484,-6.7586,-6.7621,-6.7648,-6.7648,-6.7231,0,0,0,0,0,-6.7522,-6.7574,-6.7526,-6.7642,-6.7645,-6.7584,-6.7607,-6.7552,-6.7549,-6.7549,-6.7522,-6.7523,-6.7563,-6.7591,-6.7626,-6.7767,-6.7759,-6.7838,-6.7866,-6.7889,-6.7905,-6.7977,-6.801,-6.7649,-6.7649,-6.7649,0,0,-6.7634,-6.7612,-6.765,-6.7677,-6.7671,-6.7726,-6.7585,-6.765,-6.7689,-6.7558,-6.7648,-6.7629,-6.7624,-6.7744,-6.7795,-6.7736,-6.8003,-6.7908,-6.7927,-6.793,-6.7996,-6.803,-6.806,-6.766,-6.7658,-6.7656,0,0,-6.7865,-6.7855,-6.7948,-6.7945,-6.7937,-6.7895,-6.7918,-6.7889,-6.7871,-6.796,-6.7862,-6.7909,-6.7981,-6.798,-6.799,-6.8221,-6.8144,-6.8235,-6.8379,-6.845,-6.8478,-6.8503,-6.8583,-6.8613,-6.8252,-6.8252,-6.8252,0,-6.8005,-6.8084,-6.8006,-6.8077,-6.8091,-6.7974,-6.8068,-6.8069,-6.8074,-6.8086,-6.8019,-6.8105,-6.8094,-6.8211,-6.8267,-6.828,-6.8302,-6.8236,-6.8481,-6.8505,-6.8526,-6.8602,-6.8633,-6.8263,-6.8262,-6.8261,-6.826,0,-6.8255,-6.8311,-6.8388,-6.8393,-6.8417,-6.8499,-6.8434,-6.8467,-6.8411,-6.8376,-6.8467,-6.845,-6.8477,-6.8502,-6.8448,-6.8611,-6.8574,-6.8496,-6.8376,-6.8573,-6.8642,-6.8671,-6.8279,-6.8275,-6.8271,-6.8269,0,0,-6.8597,-6.8557,-6.8587,-6.8587,-6.8569,-6.8611,-6.8689,-6.8715,-6.8744,-6.8751,-6.8812,-6.8876,-6.8803,-6.8814,-6.8759,-6.8822,-6.9003,-6.8735,-6.8734,-6.8784,-6.9179,-6.9236,-6.9271,-6.8953,-6.8959,-6.8963,-6.9179,0,-6.8817,-6.8945,-6.8877,-6.9014,-6.9064,-6.8954,-6.9021,-6.9018,-6.8988,-6.9026,-6.8993,-6.9038,-6.8939,-6.8945,-6.9002,-6.8969,-6.9081,-6.8953,-6.9009,-6.9011,-6.901,-6.9307,-6.9368,-6.9572,-6.9205,-6.921,-6.9213,0,-6.9091,-6.9108,-6.925,-6.9221,-6.9239,-6.9301,-6.9318,-6.9357,-6.9351,-6.9324,-6.9337,-6.9267,-6.934,-6.9225,-6.9324,-6.9238,-6.9257,-6.9245,-6.9251,-6.9251,-6.9122,-6.9313,-6.9636,-6.9666,-6.9256,-6.9252,-6.9249,0,-6.9323,-6.9382,-6.9473,-6.9477,-6.9447,-6.9492,-6.9482,-6.9469,-6.9489,-6.9505,-6.9517,-6.9542,-6.9556,-6.9577,-6.9516,-6.9438,-6.9624,-6.9503,-6.9602,-6.9604,-6.9644,-6.9642,-6.9972,-6.9662,-6.9661,-6.9661,-6.966,0,-6.9574,-6.9665,-6.9576,-6.9632,-6.973,-6.9652,-6.9751,-6.9729,-6.9719,-6.9769,-6.9677,-6.9726,-6.9644,-6.9685,-6.9638,-6.9726,-6.9734,-6.9714,-6.97,-6.972,-6.9723,-6.973,-6.9713,-6.9669,-6.9667,-6.9666,-6.9664,0,-6.9848,-6.9793,-6.9885,-6.9849,-6.9841,-6.9915,-6.9883,-6.9934,-6.9898,-6.9962,-6.9973,-6.9916,-6.9959,-6.9901,-6.994,-6.9908,-7.0028,-6.9994,-7.003,-7.0019,-7.012,-7.0111,-7.0464,-7.0506,-7.0172,-7.0175,-7.0178,0,-7.0011,-7.0078,-7.0048,-7.0074,-7.0068,-7.0113,-7.0131,-7.0058,-7.0081,-7.0079,-7.013,-7.0165,-7.0189,-7.0263,-7.0226,-7.0254,-7.0219,-7.0341,-7.0222,-7.024,-7.0217,-7.0213,-7.0218,-7.0364,-7.0368,-7.0372,-7.0374,0,-7.0305,-7.0274,-7.0304,-7.0326,-7.0351,-7.0364,-7.0371,-7.0398,-7.032,-7.0352,-7.0394,-7.0413,-7.0451,-7.0487,-7.0505,-7.0494,-7.0422,-7.0412,-7.0436,-7.0456,-7.0473,-7.0462,-7.0092,-7.0404,-7.0401,-7.0399,-7.0397,-7.0396,-7.0526,-7.0579,-7.0566,-7.0602,-7.0599,-7.0608,-7.0652,-7.0621,-7.0655,-7.0679,-7.0634,-7.0688,-7.0679,-7.0696,-7.0694,-7.0735,-7.0682,-7.0718,-7.0726,-7.0735,-7.075,-7.0469,-7.0739,-7.0738,-7.0737,-7.0736,-7.0736,0,-7.0812,-7.0798,-7.0833,-7.0844,-7.0873,-7.0802,-7.0805,-7.0834,-7.0882,-7.088,-7.0905,-7.0954,-7.0988,-7.0954,-7.0981,-7.102,-7.0988,-7.103,-7.1025,-7.1023,-7.0797,-7.0772,-7.1056,-7.1056,-7.1056,-7.1056,-7.1056,-7.1055,-7.0964,-7.1049,-7.1017,-7.11,-7.1085,-7.1135,-7.1143,-7.115,-7.1148,-7.1205,-7.1233,-7.121,-7.1195,-7.122,-7.1249,-7.1238,-7.1251,-7.1305,-7.1282,-7.1071,-7.1039,-7.1009,-7.0985,-7.1309,-7.131,-7.1504,-7.1506,-7.1507]},{"header":{"parameterUnit":"m.s-1","parameterCategory":1,"la1":30.2991,"la2":30.254,"lo1":-89.0895,"lo2":-89.0444,"dy":0.0017,"dx":0.0017,"nx":28,"ny":28,"refTime":"2024-06-17T09:00:00:Z","depth":0,"parameterNumber":3,"parameterNumberName":"V-component_of_WINDS"},"data":[0,0,0,0,0,0,0,0,0,0,0,0,0,0,0,0,0,0,0,0,0,0,0,0,0,0,0,0,0,0,0,0,0,0,0,0,0,0,0,0,0,0,0,0,0,0,0,0,0,0,0,0,0,0,0,0,0,0,0.8928,0.8927,0,0.8774,0.8772,0.877,0.8616,0.8614,0.8612,0.861,0.8456,0.8453,0.8451,0,0,0,0,0,0,0,0,0,0,0,0,0,0.9095,0.9092,0.8929,0.8927,0.8925,0.8774,0.8772,0.877,0.8616,0.8614,0.8611,0.8609,0.8456,0.8454,0.8451,0,0,0,0,0,0,0,0,0,0,0,0,0,0.899,0.9092,0.8929,0.883,0.8819,0.8774,0.8772,0.8769,0.8617,0.8614,0.8611,0.8608,0.8457,0.8454,0.8451,0.8492,0,0,0.8441,0.8439,0,0,0,0,0,0,0,0,0.8996,0.8984,0.8846,0.8836,0.8825,0.8711,0.8774,0.8677,0.8618,0.8694,0.861,0.8606,0.8543,0.8533,0.8511,0.8485,0.8478,0.844,0.8438,0.8437,0.8436,0,0,0,0,0,0,0,0.9003,0.899,0.8867,0.8845,0.8831,0.8794,0.8776,0.8755,0.8638,0.8687,0.8675,0.8659,0.8537,0.8514,0.8506,0.8476,0.844,0.8438,0.8436,0.8434,0.8478,0.848,0,0,0,0,0,0,0.9025,0.8997,0.8872,0.8863,0.8904,0.8794,0.8773,0.8751,0.8638,0.8617,0.8662,0.8652,0.8521,0.851,0.85,0.8541,0.8437,0.8434,0.8432,0.8474,0.8478,0.8482,0,0,0,0,0,0,0.9029,0.9015,0.8878,0.8926,0.8906,0.8794,0.877,0.8749,0.8726,0.8619,0.8597,0.866,0.8518,0.8504,0.8495,0.8534,0.8432,0.8429,0.8471,0.8476,0.848,0.8625,0,0,0,0,0,0,0.9035,0.9018,0.9032,0.8928,0.8904,0.8876,0.8772,0.8748,0.8721,0.8707,0.8611,0.8592,0.8515,0.8501,0.8492,0.8527,0.8427,0.8467,0.8473,0.8478,0.8616,0.8634,0.8649,0,0,0,0,0,0.9041,0.9079,0.9033,0.9019,0.8919,0.8878,0.8865,0.8774,0.8724,0.8738,0.8669,0.8595,0.8531,0.8501,0.849,0.8525,0.8464,0.8471,0.8478,0.8609,0.8631,0.8649,0,0,0,0,0,0,0.9192,0.9064,0.9011,0.9017,0.8959,0.8852,0.8866,0.8799,0.8756,0.8745,0.8635,0.8615,0.8619,0.857,0.854,0.856,0.8487,0.8492,0.8591,0.861,0.8627,0.8639,0.8424,0,0,0,0,0,0.9225,0.9202,0.9092,0.9107,0.9081,0.8979,0.8958,0.8893,0.883,0.8805,0.8735,0.8678,0.8644,0.8624,0.8588,0.8608,0.8586,0.8627,0.8644,0.8658,0.8664,0.8672,0.8689,0.8505,0.8505,0.8504,0,0,0.9295,0.9222,0.9214,0.9136,0.9084,0.9063,0.896,0.8942,0.8926,0.8802,0.8789,0.8736,0.8665,0.8671,0.867,0.8631,0.871,0.8667,0.8679,0.8677,0.8681,0.8699,0.8714,0.8509,0.8509,0.8508,0,0,0.9411,0.9354,0.936,0.931,0.9232,0.9164,0.9166,0.9069,0.9029,0.9013,0.892,0.89,0.8845,0.8798,0.8767,0.8867,0.8798,0.8858,0.8944,0.8954,0.8968,0.8981,0.9017,0.9031,0.8864,0.8864,0.8865,0,0.9508,0.9472,0.9373,0.9361,0.933,0.9215,0.9222,0.9179,0.9094,0.9076,0.9033,0.8961,0.8905,0.8899,0.8923,0.8902,0.8901,0.8868,0.8974,0.8985,0.8995,0.9029,0.9043,0.8872,0.8871,0.887,0.887,0,0.9595,0.9572,0.9587,0.9507,0.9477,0.9475,0.9376,0.9359,0.9296,0.9234,0.922,0.9149,0.9096,0.9089,0.9029,0.9075,0.9053,0.8994,0.8919,0.9023,0.9052,0.9064,0.8883,0.8881,0.8878,0.8876,0,0,0.9802,0.9667,0.9674,0.9636,0.9542,0.9523,0.9516,0.9463,0.9451,0.9396,0.9388,0.9344,0.9289,0.9254,0.9187,0.9195,0.928,0.9134,0.9131,0.9165,0.9327,0.9373,0.939,0.9233,0.9235,0.9237,0.9334,0,0.9903,0.9882,0.9793,0.9799,0.9777,0.9669,0.9663,0.9606,0.9547,0.9521,0.9456,0.9427,0.9355,0.9333,0.9336,0.9269,0.9311,0.926,0.9226,0.9226,0.9248,0.9405,0.9453,0.9548,0.9344,0.9346,0.9348,0,1.0017,0.9969,0.9974,0.988,0.9868,0.9864,0.9809,0.9784,0.9717,0.9674,0.9636,0.956,0.9548,0.9479,0.9461,0.9429,0.941,0.9375,0.9376,0.937,0.9294,0.9404,0.9575,0.959,0.9365,0.9363,0.9362,0,1.0169,1.0105,1.0099,1.007,0.9961,0.9961,0.9916,0.9846,0.982,0.9773,0.9755,0.9707,0.9682,0.9647,0.9561,0.9518,0.9554,0.9477,0.9519,0.9522,0.9532,0.9533,0.9704,0.9519,0.9519,0.9519,0.9518,0,1.0291,1.0298,1.0166,1.0163,1.0168,1.0066,1.0074,1.0019,0.9957,0.9942,0.9846,0.9834,0.9722,0.9698,0.9631,0.9627,0.9616,0.9582,0.9564,0.9591,0.9595,0.9577,0.9569,0.9522,0.9521,0.9521,0.952,0,1.0461,1.0372,1.0359,1.0257,1.0232,1.024,1.0153,1.0147,1.0082,1.0064,1.0054,0.9954,0.992,0.9831,0.9775,0.973,0.9746,0.9712,0.9768,0.9757,0.9805,0.9802,0.9971,0.9988,0.9793,0.9795,0.9796,0,1.0545,1.0547,1.0446,1.0428,1.0387,1.036,1.0333,1.0233,1.0209,1.0134,1.0137,1.0096,1.0057,1.0009,0.9932,0.9889,0.9854,0.9916,0.9847,0.9874,0.9856,0.9857,0.9857,0.9932,0.9934,0.9936,0.9938,0,1.0703,1.066,1.0624,1.0573,1.0544,1.05,1.045,1.0441,1.033,1.0308,1.0272,1.0243,1.0185,1.0146,1.009,1.0045,0.9974,0.9961,0.9968,0.9996,1.0029,1.0012,0.981,0.9957,0.9955,0.9954,0.9953,0.9952,1.0833,1.0831,1.0759,1.0723,1.0675,1.0631,1.062,1.0554,1.0522,1.0466,1.041,1.038,1.0314,1.0232,1.0192,1.0168,1.0131,1.0142,1.0145,1.0149,1.0162,1.0032,1.0158,1.0157,1.0157,1.0156,1.0156,0,1.0987,1.0936,1.0903,1.0837,1.0809,1.0743,1.0685,1.0666,1.0641,1.0585,1.0549,1.0509,1.047,1.039,1.0345,1.0341,1.0308,1.0333,1.0333,1.0323,1.0197,1.0196,1.0361,1.0361,1.0361,1.0361,1.0361,1.0361,1.1064,1.1057,1.1005,1.0974,1.0922,1.0892,1.0865,1.0824,1.0779,1.0738,1.0705,1.0652,1.0587,1.0536,1.0498,1.0476,1.0464,1.05,1.0468,1.0352,1.0332,1.0314,1.0311,1.0498,1.0498,1.0595,1.0596,1.0597]}]]